SCP
0 0 -0 -0 0 0 0 0 0 0 0 0 0 0 1 1 1 1 0 0 0 0
-0 0 0 0 0 0 0 0 0 0 0 0 0 0 0 1 1 1 1 1 1 0
0 0 0 0 0 0 0 0 0 0 0 0 0 0 0 0 0 0 0 0 0 1
0 0 0 0 0 0 0 0 0 0 0 0 0 0 0 0 0 0 0 0 0 0
0 0 0 0 0 0 0 0 0 0 0 0 0 0 0 0 0 0 0 0 0 0
0 0 0 0 0 0 0 0 0 0 0 0 0 0 0 0 0 0 0 0 0 0
0 0 0 0 0 0 0 0 0 0 0 0 0 0 0 0 0 0 0 0 0 0
0 0 0 0 0 0 0 0 0 0 0 0 0 0 0 0 0 0 0 0 0 0
0 0 0 0 0 0 0 0 0 0 0 0 0 0 0 0 0 0 0 0 0 0
0 0 0 0 0 0 0 0 0 0 0 0 0 0 0 0 0 0 0 0 0 0
0 0 0 0 0 0 0 0 0 0 0 0 0 0 0 0 0 0 0 0 0 0
0 0 0 0 0 0 0 0 0 0 0 0 0 0 0 0 0 0 0 0 0 0
0 0 0 0 0 0 0 0 0 0 0 0 0 0 0 -0 0 0 0 0 0 0
0 0 0 0 0 0 0 0 0 0 0 0 0 0 0 0 0 0 0 0 0 0
Wind_Speed_500mb
28 23 24 11 14 16 20 23 27 27 26 26 28 28 26 26 26 27 29 28 29 29
14 16 14 10 12 18 23 24 28 28 30 33 35 34 33 29 31 31 27 30 30 31
15 3 5 10 15 20 22 24 27 28 29 28 29 34 35 28 27 33 28 31 33 31
11 10 10 11 15 17 22 22 22 20 18 20 21 23 23 25 24 30 33 38 38 39
11 11 10 10 14 16 17 17 18 17 15 16 18 18 20 19 20 22 22 24 28 32
11 12 11 11 11 13 15 14 14 15 14 15 20 21 21 21 22 21 23 28 27 27
9 8 9 10 12 12 13 14 14 14 17 18 21 26 26 24 23 22 21 22 23 29
10 12 12 14 18 20 21 21 21 20 21 20 25 31 31 29 25 24 23 21 23 22
11 11 15 18 18 17 19 21 24 25 26 28 25 31 31 30 25 25 27 25 22 20
11 15 17 17 19 22 21 21 22 24 24 28 38 38 36 29 25 27 29 33 32 26
14 14 14 18 19 18 16 19 21 23 25 26 40 43 43 36 28 29 30 32 38 37
14 15 15 16 15 12 12 13 15 18 25 30 35 42 44 35 29 29 28 29 31 43
17 17 17 12 10 8 10 12 11 15 18 26 25 38 42 42 32 29 29 28 31 40
16 14 12 10 8 8 9 11 14 15 16 15 23 25 36 39 32 32 27 29 31 32
Wind_Direction_500mb
246 249 276 255 276 285 285 286 290 296 294 280 276 272 275 276 277 281 280 282 288 285
202 227 216 254 293 298 300 305 301 294 288 289 288 287 276 281 271 262 273 279 281 279
121 100 339 318 305 300 303 310 311 311 306 300 294 286 285 281 289 276 279 272 264 264
51 22 4 326 319 326 319 316 313 312 319 322 317 309 304 300 309 292 284 281 278 273
29 27 4 344 335 330 328 336 348 349 348 345 352 342 333 329 327 328 316 307 297 294
45 16 2 358 4 7 9 4 358 1 4 1 348 347 343 334 335 336 338 332 333 325
22 45 56 50 45 35 33 34 32 24 21 22 11 2 2 352 343 335 329 334 336 338
55 65 69 68 68 65 65 59 59 53 46 43 18 6 7 9 2 353 343 333 335 330
77 78 83 81 73 74 71 68 65 59 52 45 29 17 15 19 5 3 358 353 341 347
99 104 102 100 95 85 77 71 63 57 53 40 35 26 24 32 16 16 12 8 7 355
115 117 109 106 97 89 77 65 58 50 46 37 28 24 24 37 23 19 19 16 9 6
121 129 122 111 93 83 64 47 39 36 33 32 21 21 22 36 20 19 16 16 10 11
117 127 120 105 83 49 30 7 18 17 18 12 19 14 17 27 20 17 19 14 14 353
129 123 110 83 55 24 5 2 1 4 360 351 354 2 9 12 19 17 12 9 4 358
Wind_Speed_850mb
28 23 24 11 14 16 20 23 27 27 26 26 28 28 26 26 26 27 29 28 29 29
14 16 14 10 12 18 23 24 28 28 30 33 35 34 33 29 31 31 27 30 30 31
15 3 5 10 15 20 22 24 27 28 29 28 29 34 35 28 27 33 28 31 33 31
11 10 10 11 15 17 22 22 22 20 18 20 21 23 23 25 24 30 33 38 38 39
11 11 10 10 14 16 17 17 18 17 15 16 18 18 20 19 20 22 22 24 28 32
11 12 11 11 11 13 15 14 14 15 14 15 20 21 21 21 22 21 23 28 27 27
9 8 9 10 12 12 13 14 14 14 17 18 21 26 26 24 23 22 21 22 23 29
10 12 12 14 18 20 21 21 21 20 21 20 25 31 31 29 25 24 23 21 23 22
11 11 15 18 18 17 19 21 24 25 26 28 25 31 31 30 25 25 27 25 22 20
11 15 17 17 19 22 21 21 22 24 24 28 38 38 36 29 25 27 29 33 32 26
14 14 14 18 19 18 16 19 21 23 25 26 40 43 43 36 28 29 30 32 38 37
14 15 15 16 15 12 12 13 15 18 25 30 35 42 44 35 29 29 28 29 31 43
17 17 17 12 10 8 10 12 11 15 18 26 25 38 42 42 32 29 29 28 31 40
16 14 12 10 8 8 9 11 14 15 16 15 23 25 36 39 32 32 27 29 31 32
Wind_Direction_850mb
246 249 276 255 276 285 285 286 290 296 294 280 276 272 275 276 277 281 280 282 288 285
202 227 216 254 293 298 300 305 301 294 288 289 288 287 276 281 271 262 273 279 281 279
121 100 339 318 305 300 303 310 311 311 306 300 294 286 285 281 289 276 279 272 264 264
51 22 4 326 319 326 319 316 313 312 319 322 317 309 304 300 309 292 284 281 278 273
29 27 4 344 335 330 328 336 348 349 348 345 352 342 333 329 327 328 316 307 297 294
45 16 2 358 4 7 9 4 358 1 4 1 348 347 343 334 335 336 338 332 333 325
22 45 56 50 45 35 33 34 32 24 21 22 11 2 2 352 343 335 329 334 336 338
55 65 69 68 68 65 65 59 59 53 46 43 18 6 7 9 2 353 343 333 335 330
77 78 83 81 73 74 71 68 65 59 52 45 29 17 15 19 5 3 358 353 341 347
99 104 102 100 95 85 77 71 63 57 53 40 35 26 24 32 16 16 12 8 7 355
115 117 109 106 97 89 77 65 58 50 46 37 28 24 24 37 23 19 19 16 9 6
121 129 122 111 93 83 64 47 39 36 33 32 21 21 22 36 20 19 16 16 10 11
117 127 120 105 83 49 30 7 18 17 18 12 19 14 17 27 20 17 19 14 14 353
129 123 110 83 55 24 5 2 1 4 360 351 354 2 9 12 19 17 12 9 4 358